Location: *
(46.3500°N, 10.9000°E)
Time: 16:18:43
(UTC+00:00)

Vanguard 2 Rocket - Visible Passes

Search period start: 19 April 2021 00:00
Search period end: 29 April 2021 00:00
Orbit: 553 x 3326 km, 32.9° (Epoch: 18 April)

Date Brightness Start Highest point End Pass type
(mag) Time Alt. Az. Time Alt. Az. Time Alt. Az.
19 Apr 10.2 20:24:46 10° WSW 20:28:16 11° SW 20:31:25 10° SW visible
20 Apr 10.1 19:18:08 10° W 19:28:41 20° SW 19:36:50 10° S visible
22 Apr 10.4 19:34:23 10° WSW 19:40:59 13° SW 19:46:41 10° SSW visible
23 Apr 10.3 18:28:47 10° W 18:41:06 22° SW 18:50:55 10° S visible
25 Apr 10.7 18:44:43 10° W 18:53:22 15° SW 19:00:53 10° SSW visible
